Regional Weather Roundup
Issued by NWS

Home | Current Version | Previous Version | Graphics & Text | Print | Product List | Glossary Off
Versions: 1 2 3 4 5 6 7 8 9 10 11 12 13 14 15 16 17 18 19 20 21 22 23 24 25 26 27 28 29 30 31 32 33 34 35 36 37 38 39 40 41 42 43 44 45 46 47 48 49 50

042
ASUS43 KTOP 261659
RWRKS

WEATHER ROUNDUP FOR KANSAS
NATIONAL WEATHER SERVICE GOODLAND KS
1200 PM CDT THU APR 26 2018

NOTE:  "FAIR" INDICATES FEW OR NO CLOUDS BELOW 12,000 FEET WITH NO
SIGNIFICANT WEATHER AND/OR OBSTRUCTIONS TO VISIBILITY.

KSZ001>006-013>018-027>032-041>047-261800-
NORTHWEST KANSAS

CITY           SKY/WX    TMP DP  RH WIND       PRES   REMARKS
GOODLAND       PTSUNNY   58  34  40 N33G49    30.11R
HAYS           CLOUDY    63  38  39 NW12      30.02S
HILL CITY      SUNNY     60  41  49 N20       30.05R
RUSSELL        MOSUNNY   61  40  45 W6        30.01S
$$

KSZ061>065-074>080-084>089-261800-
SOUTHWEST KANSAS

CITY           SKY/WX    TMP DP  RH WIND       PRES   REMARKS
DODGE CITY     PTSUNNY   62  38  40 W6        30.00R
GARDEN CITY    MOSUNNY   57  38  48 N23G33    30.02R
GREAT BEND     PTSUNNY   62  42  47 VRB3      30.02R
LIBERAL        CLOUDY    58  38  47 N20       30.00R
$$

KSZ066>073-081>083-090>101-261800-
SOUTHEAST KANSAS

CITY           SKY/WX    TMP DP  RH WIND       PRES   REMARKS
CHANUTE        SUNNY     58  46  64 W5        30.03F
COFFEYVILLE    PTSUNNY   56  48  74 VRB3      30.04F
HUTCHINSON     SUNNY     59  43  55 VRB3      30.02S
MEDICINE LODGE   N/A     58  43  57 SE7       29.99F
NEWTON         SUNNY     57  43  59 VRB3      30.04R
PARSONS        CLOUDY    57  48  72 CALM      30.05F
WICHITA INTL   CLOUDY    59  43  55 VRB3      30.02S
WICHITA JABRA  SUNNY     58  40  51 CALM      30.02S
WINFIELD       SUNNY     57  48  72 CALM      30.04F
$$

KSZ007>012-019>026-033>040-048>060-102>105-261800-
NORTHEAST KANSAS

CITY           SKY/WX    TMP DP  RH WIND       PRES   REMARKS
CONCORDIA      PTSUNNY   59  41  51 SW9       30.02S
EMPORIA        SUNNY     57  44  62 CALM      30.03S
LAWRENCE       SUNNY     59  45  59 CALM      30.02F
MANHATTAN      MOSUNNY   59  42  53 S6        30.03R
OLATHE IND     SUNNY     58  44  60 MISG      30.03S
OLATHE EXE     SUNNY     57  42  57 VRB3      30.02S
SALINA         MOSUNNY   61  44  53 SW5       30.04R
TOPEKA BILLARD CLOUDY    59  45  59 MISG      30.02F
TOPEKA FORBES  SUNNY     59  46  62 SW8       30.01F
$$




USA.gov is the U.S. government's official web portal to all federal, state and local government web resources and services.